Dewpoint
-7 -9 -10 -11 -13 -13 -14 -14 -15 -15 -16 -16 -14 -5 -5 -6 -7 -6 -4 -0 -4 -4 1 2 1 -1 -0 0 0 -1 1 -1 -2 -4 0 -3 -2 -1 -2 -2 -3 -4 -4 -6 -6
-7 -8 -10 -12 -13 -14 -15 -15 -15 -15 -17 -16 -10 -4 -3 -3 -1 -7 -1 -3 -6 -7 -2 3 1 0 -1 -1 0 -0 2 -0 -1 -1 -2 -4 -4 -4 -3 -4 -3 -4 -5 -6 -7
-6 -8 -10 -13 -14 -15 -15 -15 -14 -13 -17 -13 -5 -4 -3 -1 -5 -8 -3 -3 -5 -5 0 1 1 0 -2 -1 -1 -1 1 -1 -2 -1 -3 -4 -5 -5 -4 -4 -5 -5 -6 -7 -8
-7 -10 -12 -14 -16 -15 -14 -13 -12 -12 -13 -9 -3 -5 -7 -6 -2 -5 -2 -3 -2 1 0 -0 -2 -3 -3 -2 -2 -0 -4 -2 -3 -3 -3 -3 -5 -7 -5 -5 -6 -6 -7 -8 -9
-9 -12 -14 -15 -16 -14 -12 -11 -10 -10 -9 -7 -4 -4 -5 -8 -10 -2 -3 -7 -6 1 1 1 -1 -1 -2 -3 -3 -3 -5 -6 -4 -4 -5 -6 -7 -7 -7 -8 -8 -8 -8 -8 -10
-12 -14 -16 -17 -16 -14 -10 -8 -7 -6 -6 -5 -5 -6 -6 -9 -15 -2 -4 -7 -10 -0 -2 -3 1 -1 -2 -1 0 -2 -5 -7 -7 -7 -5 -5 -6 -6 -8 -9 -9 -9 -9 -8 -10
-13 -15 -17 -17 -16 -13 -10 -7 -6 -5 -6 -6 -5 -4 -14 -14 -17 -18 -5 -11 -11 -8 -5 -5 -4 -4 -4 -1 -2 -4 -4 -6 -9 -10 -12 -5 -5 -8 -9 -10 -10 -11 -11 -11 -10
-14 -16 -17 -17 -16 -12 -9 -7 -5 -3 -4 -6 -6 -8 -11 -14 -20 -20 -21 -14 -14 -7 -7 -3 -5 -10 -12 -10 -4 -2 -1 1 -10 -12 -13 -10 -4 -9 -11 -12 -13 -13 -13 -12 -13
-15 -16 -18 -18 -16 -14 -12 -9 -9 -8 -10 -8 -7 -6 -9 -11 -16 -26 -24 -21 -15 -13 -12 -13 -13 -16 -18 -13 -10 -7 -7 -6 -10 -16 -15 -15 -11 -11 -12 -13 -14 -14 -15 -15 -14
-15 -17 -19 -19 -17 -14 -12 -9 -9 -9 -9 -9 -10 -7 -14 -14 -16 -26 -21 -18 -15 -14 -10 -14 -15 -13 -17 -15 -9 -8 -16 -18 -16 -16 -17 -15 -16 -12 -14 -15 -15 -15 -15 -15 -16
-15 -16 -17 -19 -19 -16 -13 -11 -3 -7 -13 -12 -12 -13 -13 -18 -15 -27 -19 -16 -16 -16 -11 -15 -13 -13 -16 -18 -19 -19 -19 -19 -19 -17 -17 -17 -17 -11 -14 -15 -16 -15 -15 -15 -15
-14 -14 -16 -17 -19 -16 -12 -3 -6 -9 -9 -12 -13 -14 -15 -16 -16 -26 -19 -16 -17 -13 -14 -13 -14 -16 -17 -18 -18 -19 -20 -19 -19 -19 -20 -19 -18 -17 -15 -16 -16 -15 -15 -14 -15
-13 -14 -16 -17 -17 -17 -12 -11 -9 -6 -3 -9 -12 -15 -15 -14 -16 -18 -18 -16 -17 -15 -16 -14 -17 -19 -20 -18 -19 -21 -19 -17 -18 -18 -18 -18 -17 -18 -15 -17 -15 -14 -13 -13 -14
-11 -13 -15 -16 -12 -16 -10 -11 -5 -4 2 -6 -11 -13 -15 -12 -14 -17 -18 -17 -18 -15 -15 -17 -19 -20 -20 -18 -19 -18 -17 -17 -16 -14 -13 -17 -11 -12 -14 -15 -13 -13 -13 -13 -14
-7 -10 -13 -17 -19 -17 -11 -8 -4 -3 9 -8 -11 -15 -16 -17 -17 -16 -18 -19 -18 -19 -16 -16 -17 -16 -18 -18 -18 -17 -17 -17 -16 -14 -13 -14 -11 -9 -12 -11 -11 -12 -13 -13 -13
-4 -7 -11 -16 -16 -19 -9 -5 -3 6 9 -5 -12 -14 -17 -16 -17 -17 -18 -19 -18 -18 -18 -18 -18 -18 -17 -17 -18 -18 -17 -17 -17 -16 -6 -13 -11 -8 -9 -10 -12 -12 -12 -13 -15
-3 -7 -11 -16 -18 -21 -6 -2 5 7 -9 -8 -10 -14 -16 -17 -17 -17 -16 -17 -15 -14 -17 -17 -18 -18 -19 -18 -17 -18 -16 -5 -6 -6 -5 -15 -12 -10 -11 -12 -12 -12 -13 -14 -15
-3 -10 -12 -17 -21 -21 -7 1 4 -7 -10 -12 -13 -14 -14 -18 -17 -16 -16 -15 -17 -19 -19 -16 -9 -18 -19 -17 -17 -16 -17 -8 -11 -8 -10 -12 -12 -10 -13 -12 -12 -11 -14 -14 -14
-2 -10 -14 -19 -22 -20 -4 4 -1 -8 -12 -13 -14 -14 -14 -16 -19 -19 -16 -15 -16 -18 -17 -17 -16 -18 -17 -18 -18 -18 -15 -19 -11 -12 -9 -12 -8 -11 -10 -11 -11 -14 -13 -14 -16
-1 -9 -15 -17 -21 -16 -1 -5 -8 -11 -14 -14 -14 -17 -18 -18 -20 -21 -19 -16 -14 -17 -17 -17 -15 -19 -17 -18 -17 -18 -20 -13 -10 -9 -11 -13 -12 -11 -11 -13 -13 -13 -12 -17 -18
-2 -8 -12 -18 -14 -8 -1 -8 -10 -13 -13 -14 -15 -18 -19 -19 -20 -20 -18 -15 -17 -16 -17 -17 -16 -15 -18 -16 -16 -15 -13 -16 -18 -15 -11 -11 -13 -14 -14 -14 -14 -13 -15 -18 -19
-3 -3 -11 -19 -7 -11 -6 -11 -14 -13 -14 -15 -17 -17 -18 -19 -20 -20 -17 -15 -17 -17 -17 -16 -17 -14 -16 -18 -18 -16 -15 -16 -12 -12 -14 -13 -12 -11 -13 -12 -13 -16 -19 -19 -19
-6 -11 -15 -18 -4 -9 -11 -11 -13 -14 -14 -16 -15 -16 -18 -19 -20 -19 -17 -15 -16 -16 -15 -16 -12 -11 -14 -15 -13 -12 -14 -16 -17 -15 -12 -9 -11 -10 -12 -13 -18 -19 -19 -19 -19
-8 -3 -8 -16 -14 -11 -10 -11 -11 -14 -14 -16 -15 -17 -18 -18 -19 -18 -17 -14 -16 -15 -12 -16 -15 -13 -12 -14 -16 -15 -17 -15 -14 -11 -12 -12 -12 -15 -16 -17 -19 -19 -18 -19 -19
-11 -6 -13 -6 -11 -13 -14 -11 -11 -11 -14 -16 -15 -15 -18 -20 -18 -17 -18 -15 -14 -15 -12 -16 -14 -16 -15 -15 -15 -14 -14 -14 -13 -12 -11 -12 -13 -16 -17 -18 -18 -18 -18 -18 -19
-10 -12 -16 -13 -14 -14 -13 -12 -12 -13 -14 -14 -14 -16 -19 -19 -19 -17 -18 -17 -18 -15 -13 -16 -12 -14 -14 -16 -16 -14 -16 -14 -14 -16 -15 -15 -15 -19 -18 -18 -18 -17 -17 -18 -17
-10 -15 -15 -12 -14 -14 -14 -14 -13 -14 -13 -15 -16 -17 -16 -17 -17 -15 -15 -16 -17 -16 -15 -15 -13 -12 -11 -17 -16 -12 -12 -14 -15 -17 -16 -14 -15 -18 -17 -17 -17 -17 -17 -17 -16
Wind_Speed
17 17 17 17 15 14 13 13 12 11 8 4 6 13 19 22 19 14 14 17 15 10 10 11 8 4 4 2 3 3 2 4 7 6 7 14 4 14 14 21 27 14 17 14 18
18 18 17 17 16 15 14 13 11 10 7 4 10 15 12 10 7 24 14 11 10 8 8 8 5 5 0 1 1 2 2 4 9 12 9 15 11 8 4 18 14 15 16 18 20
19 19 18 17 16 15 14 11 9 9 6 6 11 8 6 4 6 16 15 12 11 10 10 7 6 4 2 1 2 1 3 5 13 14 9 11 20 13 7 10 14 14 16 19 21
20 19 18 16 16 15 12 10 8 8 7 7 9 5 8 6 2 16 14 14 15 18 9 8 6 4 4 2 2 1 10 14 9 11 4 7 9 14 21 8 8 10 12 16 21
19 19 17 15 14 13 12 11 9 8 8 8 6 6 8 10 10 13 11 14 12 13 12 10 11 7 3 6 5 4 7 10 11 14 18 18 17 9 11 8 8 9 13 16 19
18 18 16 15 13 12 11 11 11 11 7 6 5 5 4 8 12 9 10 12 11 10 11 11 7 7 5 7 7 8 12 10 9 12 5 5 6 2 9 7 9 11 14 15 18
18 17 15 14 12 10 8 6 7 8 11 12 7 9 18 9 12 11 7 11 11 10 8 8 6 6 6 3 4 8 5 6 3 1 4 5 6 8 8 7 9 11 13 15 18
18 18 16 13 10 9 8 8 6 5 4 5 8 7 7 8 11 6 7 5 8 9 9 8 7 7 5 3 4 3 6 5 3 3 3 5 4 8 5 5 8 10 14 16 19
17 17 15 12 9 10 10 7 8 7 8 5 8 3 4 9 14 22 12 13 8 8 9 8 6 7 9 5 4 4 4 3 5 4 4 1 1 8 5 4 9 12 14 16 18
15 15 14 10 9 9 9 8 9 3 3 6 4 2 9 10 12 23 10 15 7 8 3 8 4 4 9 7 2 5 5 7 7 4 5 6 8 9 7 8 12 14 15 17 18
15 15 14 9 7 8 4 4 5 3 24 11 7 7 7 11 7 22 14 10 8 14 5 8 9 7 8 8 6 5 6 8 7 10 3 5 4 8 10 11 13 14 14 16 18
15 14 14 9 5 11 3 2 3 8 11 9 9 10 9 10 3 25 14 8 15 8 4 6 6 4 4 4 7 6 7 7 3 3 8 7 9 3 13 13 13 13 14 18 24
16 15 14 11 6 10 7 3 11 12 3 5 9 8 11 9 8 17 17 6 6 8 10 7 3 1 1 7 9 6 5 5 7 13 11 13 13 16 13 15 12 12 12 16 21
17 14 12 11 5 9 5 8 10 2 3 2 4 6 11 2 5 16 13 5 4 6 7 7 3 2 2 5 7 3 7 8 11 8 4 5 5 6 12 9 12 10 13 17 25
20 17 13 10 7 7 5 7 4 1 2 4 3 4 9 8 8 12 16 10 5 6 3 3 5 6 5 3 3 5 11 13 10 9 8 8 4 2 13 8 3 7 12 18 20
20 17 12 9 6 7 2 5 4 1 3 2 1 4 1 11 5 7 8 9 1 1 8 4 4 4 3 8 4 8 10 19 11 4 3 4 2 2 1 3 2 5 11 17 26
19 15 9 9 6 4 5 7 1 1 2 2 1 4 3 5 4 6 4 8 5 4 2 5 4 2 6 4 5 7 9 3 3 0 4 6 5 4 4 3 5 3 13 20 25
21 11 5 10 8 2 7 2 1 1 3 1 0 2 1 4 2 3 3 2 9 7 3 5 2 1 3 2 3 6 3 2 4 3 6 10 4 4 3 8 2 6 18 21 24
25 12 4 14 8 1 2 1 1 3 2 2 3 4 4 3 2 3 4 3 4 7 5 5 1 3 3 2 3 4 1 3 3 8 3 4 2 3 5 6 4 13 17 21 26
22 10 3 14 7 1 1 3 2 2 1 2 3 1 3 3 3 4 3 3 4 4 4 4 5 2 4 3 4 3 1 1 2 3 5 5 5 3 1 3 4 13 16 24 28
16 5 4 11 4 3 2 3 3 2 1 3 4 2 2 3 1 3 5 3 1 4 2 2 3 2 2 4 3 2 2 2 2 2 3 5 4 5 6 4 6 14 17 26 28
9 4 6 6 2 4 2 2 3 5 1 2 1 3 3 3 2 0 2 4 4 1 1 4 2 4 2 6 4 3 3 3 1 6 6 7 10 3 5 6 7 12 23 27 29
9 4 4 3 2 3 4 3 3 2 1 2 2 1 0 1 1 2 3 6 5 2 3 3 2 4 3 3 4 2 6 6 5 4 10 8 8 6 9 6 17 23 27 29 30
5 2 1 2 3 3 4 4 4 1 3 1 3 2 2 4 3 1 4 5 5 4 3 1 4 5 4 4 4 7 9 6 3 3 8 12 13 11 8 10 19 24 27 30 31
3 4 2 1 2 4 2 6 4 4 3 7 4 6 5 3 3 4 2 6 10 7 5 3 4 6 8 6 7 12 14 5 6 8 7 14 14 9 8 8 20 25 28 29 26
5 4 2 3 4 5 3 7 8 3 7 4 3 8 4 3 1 1 3 4 3 10 5 7 3 8 10 11 14 9 8 9 10 9 6 10 14 9 18 23 24 27 29 25 27
10 9 5 8 4 3 4 4 6 14 2 1 6 5 5 2 2 1 3 4 1 2 5 4 2 4 4 5 11 8 3 3 1 4 5 8 6 14 15 22 24 30 20 24 29
Wind_Direction
11 8 3 359 358 355 352 349 353 1 9 36 92 102 97 76 44 53 29 1 354 7 30 7 20 346 15 345 6 325 305 268 350 29 88 31 67 74 93 82 60 67 49 14 3
6 4 2 0 358 353 351 352 358 7 16 75 120 120 99 88 41 38 24 9 8 6 24 22 14 356 170 34 14 277 286 47 30 28 74 55 58 11 109 58 45 33 23 15 11
3 3 1 1 357 355 358 0 10 19 37 109 133 118 42 47 66 5 16 19 20 22 5 358 343 345 282 304 68 75 4 106 41 21 356 116 73 37 55 53 37 27 16 14 11
1 2 2 3 359 2 12 14 24 40 60 113 132 45 58 44 57 355 10 25 37 27 18 0 348 308 315 280 71 203 41 29 49 31 30 63 95 78 62 77 49 35 24 19 16
6 5 6 5 8 11 24 36 46 57 74 102 120 43 63 56 20 4 18 18 33 36 38 23 32 351 323 4 330 304 103 75 86 72 66 80 73 97 72 69 53 42 30 23 21
8 7 8 8 15 21 32 51 63 53 71 87 77 71 46 75 360 5 14 5 20 47 9 45 4 337 341 41 18 27 101 102 87 81 75 121 106 136 47 35 35 32 29 23 21
6 7 10 13 21 26 25 25 28 43 82 98 54 49 70 71 358 3 359 359 12 19 13 24 30 32 357 87 11 137 125 133 103 32 70 123 135 69 37 25 27 23 20 19 18
6 6 8 15 26 35 32 28 32 65 68 57 76 44 80 29 10 352 21 310 9 11 13 17 35 55 39 333 214 228 215 225 78 356 158 117 121 92 55 34 40 31 28 23 17
7 7 5 13 33 37 31 34 57 78 59 77 62 113 69 342 359 13 3 14 18 354 16 22 56 74 24 315 268 172 270 269 142 90 18 12 40 122 86 60 50 41 35 25 15
8 9 6 358 10 356 4 65 54 347 49 57 57 39 22 346 358 357 4 33 2 359 32 33 39 79 30 8 53 339 341 349 338 142 61 309 270 126 98 72 61 48 35 24 14
5 5 6 354 0 349 318 294 327 5 61 74 57 82 21 12 19 11 30 43 37 41 36 25 60 50 22 14 342 313 316 289 297 24 21 277 326 164 114 80 67 54 35 19 9
3 0 1 4 348 5 12 216 182 138 96 61 64 61 27 27 21 8 44 58 51 54 348 52 82 41 327 32 339 266 279 297 340 48 319 266 258 137 122 104 88 60 33 13 359
5 2 1 360 358 7 22 115 139 131 110 51 41 32 18 16 42 1 19 32 12 44 58 80 71 278 317 57 355 343 339 5 298 324 271 274 265 232 125 122 87 53 26 9 357
6 5 4 3 16 2 36 138 143 128 187 57 6 17 2 69 55 8 21 13 69 48 79 79 46 23 31 59 10 296 13 321 309 320 287 52 286 87 147 136 80 42 17 353 348
2 3 6 10 360 358 333 188 187 88 349 52 32 26 24 63 337 6 9 48 51 22 264 76 58 6 61 11 330 276 331 287 271 268 293 256 241 336 137 129 97 49 6 346 342
358 355 4 11 9 357 1 159 166 323 275 86 75 3 208 50 37 351 21 30 93 31 29 92 99 52 347 294 210 284 293 286 243 233 270 21 186 301 116 152 155 22 354 347 337
356 350 353 7 354 7 129 124 2 234 95 78 4 7 108 24 43 20 68 44 24 349 62 157 104 114 355 332 173 353 327 342 348 255 237 76 323 228 191 112 115 20 345 336 339
350 350 3 2 360 20 153 171 118 90 78 148 270 232 16 346 111 2 289 90 42 349 304 346 285 39 9 80 299 295 334 111 266 306 286 307 245 284 138 147 193 329 335 332 336
349 344 16 5 2 63 139 189 198 35 32 342 179 253 142 162 244 226 61 92 38 21 34 350 136 135 68 346 356 345 55 67 273 240 253 227 78 320 178 218 211 327 327 332 338
345 346 10 359 3 58 38 69 86 43 351 241 288 303 330 79 284 23 110 75 121 38 334 65 299 121 138 215 219 295 9 166 187 294 299 306 311 244 230 236 300 302 313 339 340
339 330 337 352 29 53 97 95 121 118 25 352 4 307 86 6 7 343 68 117 71 139 317 71 142 178 172 194 61 203 247 248 284 168 231 300 265 202 196 207 249 295 333 340 337
334 298 318 340 69 34 85 68 118 140 123 124 44 24 9 40 282 228 56 87 110 66 295 76 330 281 354 80 72 356 302 317 220 293 319 306 296 167 173 212 273 331 342 340 336
318 266 302 330 226 117 139 92 61 152 97 170 112 8 100 149 264 125 125 133 161 221 10 106 197 295 144 116 11 256 233 231 248 242 265 278 276 195 222 247 3 350 343 338 336
303 291 298 71 75 105 153 164 147 127 122 151 116 164 182 210 159 126 199 169 174 223 145 94 245 224 231 277 303 285 295 296 257 271 289 273 302 321 343 6 353 342 337 335 329
233 251 214 256 95 100 126 146 145 187 225 192 161 228 191 215 198 210 168 144 188 208 178 212 262 270 273 283 286 270 273 271 267 255 267 298 300 312 6 1 346 338 334 329 325
216 187 175 145 154 148 145 201 181 122 162 198 246 162 200 230 23 205 180 185 219 168 183 186 269 315 287 273 263 271 264 235 245 283 280 304 300 343 354 346 341 333 328 330 339
228 214 184 167 179 182 199 161 183 142 192 34 198 134 209 260 74 333 270 308 20 171 195 207 256 327 262 331 321 303 284 127 38 284 288 290 301 8 342 334 333 323 342 345 334
Height
1541 1538 1535 1533 1530 1527 1525 1523 1521 1519 1517 1516 1517 1518 1519 1518 1519 1516 1515 1520 1517 1515 1514 1514 1514 1514 1514 1515 1514 1514 1517 1515 1510 1507 1521 1521 1522 1528 1535 1536 1538 1545 1548 1550 1546
1541 1538 1535 1533 1531 1528 1525 1522 1521 1520 1518 1517 1518 1519 1520 1520 1520 1518 1523 1521 1519 1517 1515 1515 1516 1516 1515 1516 1516 1515 1516 1517 1519 1520 1525 1529 1529 1532 1535 1539 1544 1547 1548 1547 1543
1542 1539 1536 1534 1531 1528 1525 1523 1521 1520 1519 1519 1520 1521 1522 1521 1523 1526 1524 1522 1520 1518 1518 1518 1518 1517 1515 1516 1516 1515 1518 1518 1524 1527 1525 1528 1533 1537 1536 1544 1549 1549 1547 1545 1543
1542 1539 1536 1533 1530 1528 1525 1523 1522 1521 1521 1521 1523 1523 1522 1521 1528 1528 1525 1523 1521 1520 1520 1520 1521 1519 1517 1516 1517 1519 1524 1525 1530 1528 1525 1527 1532 1541 1543 1550 1550 1550 1549 1546 1544
1543 1539 1536 1534 1531 1528 1526 1525 1524 1523 1523 1524 1524 1524 1524 1525 1532 1529 1527 1525 1523 1522 1520 1520 1520 1520 1517 1518 1520 1520 1527 1529 1532 1532 1533 1535 1540 1543 1547 1548 1549 1550 1549 1548 1546
1543 1540 1537 1534 1532 1530 1528 1527 1526 1526 1525 1525 1526 1526 1527 1530 1533 1530 1528 1526 1523 1522 1521 1521 1523 1523 1522 1523 1524 1526 1528 1532 1536 1538 1537 1537 1542 1543 1553 1554 1553 1553 1552 1551 1549
1544 1541 1538 1535 1533 1531 1529 1529 1528 1528 1527 1527 1527 1527 1527 1536 1534 1530 1528 1526 1524 1523 1522 1522 1522 1523 1524 1524 1529 1529 1532 1534 1534 1533 1537 1539 1543 1553 1555 1555 1556 1556 1556 1555 1553
1545 1542 1539 1536 1534 1532 1531 1530 1530 1529 1529 1528 1528 1528 1533 1535 1533 1530 1528 1526 1525 1525 1524 1524 1523 1524 1525 1527 1526 1526 1527 1527 1535 1534 1537 1538 1541 1551 1552 1552 1554 1555 1556 1556 1556
1545 1543 1540 1537 1535 1533 1532 1531 1531 1530 1530 1529 1529 1530 1537 1536 1533 1531 1528 1526 1525 1526 1525 1525 1524 1526 1527 1526 1526 1522 1527 1521 1537 1537 1539 1539 1541 1548 1550 1550 1552 1554 1554 1555 1554
1545 1542 1540 1538 1535 1534 1533 1532 1532 1531 1530 1530 1531 1534 1538 1538 1535 1532 1528 1527 1527 1526 1527 1527 1527 1531 1539 1537 1540 1548 1540 1533 1534 1539 1539 1541 1539 1544 1547 1549 1552 1554 1555 1556 1555
1545 1542 1540 1537 1536 1534 1533 1533 1534 1534 1530 1539 1541 1540 1541 1539 1537 1534 1528 1529 1528 1529 1531 1532 1541 1553 1552 1550 1548 1546 1546 1543 1535 1537 1540 1537 1537 1539 1545 1548 1552 1555 1557 1557 1555
1544 1542 1539 1537 1536 1533 1532 1533 1532 1536 1541 1542 1542 1541 1541 1539 1537 1535 1531 1532 1533 1536 1532 1540 1552 1553 1551 1550 1549 1545 1542 1541 1537 1538 1541 1537 1536 1533 1542 1549 1553 1555 1556 1555 1552
1544 1541 1539 1537 1535 1534 1532 1532 1533 1535 1538 1544 1543 1541 1542 1542 1543 1541 1537 1537 1538 1538 1540 1542 1552 1551 1550 1550 1552 1546 1546 1552 1554 1545 1539 1534 1529 1527 1543 1549 1553 1556 1557 1556 1554
1544 1541 1539 1536 1536 1534 1533 1534 1535 1536 1537 1545 1544 1545 1544 1542 1546 1545 1542 1542 1540 1544 1545 1551 1552 1551 1549 1552 1556 1554 1554 1553 1553 1555 1552 1538 1551 1530 1542 1548 1554 1557 1557 1556 1552
1545 1542 1539 1536 1536 1535 1536 1535 1536 1537 1540 1547 1547 1546 1547 1547 1551 1548 1547 1545 1547 1548 1546 1555 1555 1555 1553 1559 1558 1553 1551 1550 1550 1551 1551 1539 1549 1542 1538 1549 1559 1558 1557 1555 1552
1544 1541 1538 1536 1535 1536 1534 1534 1538 1540 1541 1547 1548 1547 1546 1550 1551 1552 1550 1549 1550 1548 1549 1554 1557 1558 1560 1557 1555 1554 1550 1538 1539 1545 1562 1532 1536 1555 1550 1556 1557 1556 1556 1554 1550
1543 1540 1537 1536 1535 1533 1534 1536 1540 1540 1549 1548 1549 1550 1549 1552 1552 1553 1554 1556 1559 1555 1548 1557 1558 1560 1559 1555 1554 1554 1553 1547 1557 1567 1539 1532 1541 1558 1555 1554 1555 1556 1555 1552 1547
1542 1539 1537 1535 1534 1533 1533 1536 1537 1539 1543 1550 1550 1549 1547 1554 1554 1553 1551 1555 1560 1559 1558 1559 1557 1561 1562 1562 1565 1561 1557 1570 1590 1566 1559 1543 1567 1559 1554 1554 1554 1554 1552 1549 1544
1543 1539 1537 1535 1533 1533 1535 1535 1538 1545 1549 1549 1548 1547 1549 1553 1555 1552 1558 1563 1568 1566 1569 1568 1557 1564 1564 1564 1564 1560 1559 1561 1573 1559 1566 1539 1553 1556 1552 1552 1552 1551 1548 1544 1540
1543 1538 1537 1536 1534 1533 1535 1542 1547 1551 1551 1551 1544 1548 1542 1550 1552 1549 1553 1566 1569 1569 1567 1569 1574 1560 1564 1565 1565 1565 1564 1570 1569 1582 1561 1560 1552 1563 1558 1554 1550 1548 1544 1541 1537
1542 1539 1537 1535 1533 1534 1538 1547 1550 1552 1552 1553 1550 1550 1552 1554 1556 1554 1559 1568 1567 1568 1567 1567 1574 1564 1563 1564 1564 1567 1567 1564 1564 1570 1592 1567 1575 1554 1555 1552 1550 1545 1543 1538 1535
1541 1540 1536 1535 1537 1538 1542 1546 1549 1551 1552 1552 1552 1554 1555 1558 1556 1555 1557 1562 1567 1569 1566 1567 1570 1576 1558 1563 1565 1567 1567 1568 1577 1579 1565 1569 1555 1545 1547 1548 1546 1543 1540 1536 1533
1538 1536 1536 1535 1535 1541 1547 1549 1550 1552 1552 1553 1554 1555 1556 1555 1557 1556 1559 1564 1564 1566 1567 1568 1570 1577 1567 1567 1568 1571 1564 1562 1562 1563 1567 1570 1560 1543 1544 1545 1542 1539 1536 1533 1529
1540 1535 1534 1532 1536 1536 1542 1545 1549 1551 1551 1552 1552 1556 1556 1558 1556 1556 1559 1565 1565 1566 1568 1569 1569 1569 1577 1563 1561 1562 1557 1558 1563 1570 1563 1557 1548 1544 1543 1542 1541 1540 1536 1531 1527
1536 1535 1532 1533 1534 1536 1537 1541 1545 1550 1551 1551 1551 1552 1552 1553 1556 1556 1556 1562 1563 1565 1567 1569 1569 1565 1561 1561 1559 1558 1554 1555 1559 1562 1564 1553 1550 1546 1545 1543 1541 1539 1535 1530 1524
1529 1531 1534 1533 1534 1535 1536 1538 1539 1546 1550 1550 1550 1548 1552 1551 1549 1555 1556 1558 1557 1561 1564 1563 1567 1562 1560 1552 1548 1550 1546 1548 1548 1547 1550 1550 1548 1545 1542 1541 1539 1537 1533 1528 1523
1525 1523 1526 1532 1534 1534 1530 1531 1534 1538 1545 1544 1544 1548 1552 1552 1551 1553 1556 1556 1556 1557 1559 1560 1563 1564 1560 1548 1548 1557 1550 1541 1546 1547 1550 1554 1552 1546 1544 1541 1539 1535 1532 1527 1522